Погода в Василевичи

Погода в Василевичи : погода сейчас, прогноз погоды и архив. Всё, что Вы хотите узнать о погоде в Василевичи!

Хотите узнать прогноз погоды в Василевичи? Тогда Вам сюда: Погода в Василевичи

Поиск расширенной информации на нашем сайте:

Другие новости

Новости СМИ2

Главная страница сайта

Новости сайта

02.10.2013

Напоминаем, что на нашем новом сайте вы можете получить высокодетализированные прогнозы погоды по пунктам России, СНГ и мира (включающие важные для авиации метеовеличины, такие как направление и скорость ветра, видимость, явления погоды, количество и форма облачности, нижняя и верхняя граница облачности), а также ознакомиться с разнообразными материалами по авиационной метеорологии и подборкой полезных ссылок на эту тему.

Сайт Метеоцентр.Азия посвящён разработке технологий оптимизации авиаметеорологического обслуживания, включая проектирование и перспективное создание нескольких автоматизированных авиаметеорологических систем:
- система выпуска высокодетальных прогностических карт явлений погоды для нижнего воздушного пространства по России и ближнему зарубежью;
- система верификации прогнозов TAF (выпускаемых синоптиками официальных АМСГ РФ и ближнего зарубежья) и AUTOTAF (выпускаемых сайтом Метеоцентр.Азия) - выявление ошибок, онлайн-сопоставление с фактической погодой METAR, автоматическое внесение коррективов в прогнозы при резком отклонении фактической погоды от прогноза, подсчёт оправдываемости прогнозов по элементам и в целом;
- система обработки, анализа и отображения авиаметеорологической информации для применения провайдерами метеорологической информации.

Рекомендуем: Люстры гусь хрустальный marylyn съездили мы тут в хрустальный.

Погода в Василевичи - сегодня

Время (UTC), дата Ветер
(°,м/с) 
Видим.   Явления Облачность Т
(°С)
Тd
(°С)
f(%) Тe
(°С)
Pmin
(гПа)
dP
(гПа)
Po
(мм)
O2
(г/м3)
Тmin Tmax R s Состояние
почвы
00 26.05.17 290 (З) 2000 м  дымка  9/6 300 м средняя, верхняя 
[Sc|Ac trans|Ci fib]
+13.1 +12.8 98 +19  1013.8  -0.4  748  285           
03 26.05.17 260 (З) 4000 м  дымка{ливн. осадки}  9/3 600 м кучево-дожд., средняя 
[Cb calv|Ac trans]
+12.7 +12.2 97 +18  1013.6  -0.2  747  285      0.3     
06 26.05.17 350 (С) 10 км  {ливн. осадки}  6/0 верхняя 
[Ci fib]
+15.8 +12.2 79 +21  1013.8  0.4  748  282  +12.6    0.3     
09 26.05.17 210 (ЮЗ) 10 км    9/3 600 м верхняя 
[Cu med, cong|Cs]
+18.4 +9.2 55 +20  1013.9  0.3  748  281           
12 26.05.17 320 (СЗ) 10 км    9/6 600 м кучево-дожд., верхняя 
[Cb calv|Cs]
+19.3 +8.8 51 +20  1013.4  -0.5  748  280           
15 26.05.17 170 (Ю) 20000 м    8/3 600 м верхняя 
[Cu med, cong|Ci fib]
+19.2 +7.8 48 +20  1012.6  -0.8  747  280           
21 26.05.17 340 (С) 4000 м  слаб. ливневой дождь{гроза}  10/10 600 м кучево-дожд. 
[Cb calv]
+12.3 +11 92 +17  1014.4  -0.3  748  286         
00 27.05.17 340 (С) 4000 м  дымка{гроза, ливн. осадки}  10/6 600 м кучево-дожд., верхняя 
[Cb calv|Ci fib]
+11 +10.2 95 +13  1015.4  0.9  749  288           
03 27.05.17 340 (С) 10 км    9/9 600 м кучево-дожд. 
[Cb calv]
+11.2 +9.5 89 +13  1016.5  1.1  750  288         
09 27.05.17 340 (С) 20000 м    8/8 600 м 
[Cu hum]
+16.6 +7 53 +17  1018.4  0.9  751  284           
12 27.05.17 350 (С) 20000 м    6/4 600 м верхняя 
[Cu med, cong|Ci fib]
+19.6 +7.9 47 +21  1018.3  0.1  751  281           
15 27.05.17 350 (С) 20000 м    9/6 600 м верхняя 
[Sc diur, vesp|Ci fib]
+19.3 +7.6 47 +20  1018.5  0.1  751  282           
18 27.05.17 тихо ()   20000 м    8/0 верхняя 
[Ci fib]
+15.4 +8.2 62 +15  1019.6  0.9  752  285    +20.6       
21 27.05.17 тихо ()   4000 м  дымка  ясно 
+9.7 +8.5 92 +10  1020.9  0.9  753  291           
00 28.05.17 тихо ()   10 км    ясно 
+9.6 +6.5 81 +10  1021.2  0.3  753  292           
09 28.05.17 300 (СЗ) 20000 м    10/3 600 м средняя, верхняя 
[Cu hum|Ac trans|Ci]
+20.4 +9.9 51 +21  1020.3  -0.7  753  280           
12 28.05.17 290 (З) 20000 м    8/8 600 м верхняя 
[Cu med, cong|Ci fib]
+22.4 +10.2 46 +24  1019.6  -0.6  752  278           
15 28.05.17 310 (СЗ) 20000 м    8/5 600 м верхняя 
[Cu med, cong|Ci fib]
+23.5 +12.1 49 +28  1018.9  -0.6  752  277           
18 28.05.17 230 (ЮЗ) 20000 м    9/4 600 м верхняя 
[Sc diur, vesp|Ci fib]
+20.1 +12 60 +24  1019  -0.1  752  280    +24.7       
21 28.05.17 200 (Ю) 10 км    ясно 
+15.3 +11.4 78 +20  1019.5  0.2  752  285           
00 29.05.17 200 (Ю) 10 км    ясно 
+13.7 +10.7 82 +17  1018.7  -0.9  751  286           
09 29.05.17 220 (ЮЗ) 20000 м    8/5 600 м верхняя 
[Cu hum|Ci fib]
+23.7 +11.3 46 +27  1013.8  -1.9  748  275           
12 29.05.17 230 (ЮЗ) 3{10}  20000 м    9/4 1000 м средняя, верхняя 
[Cu hum|Ac trans|Cc]
+25.3 +11.2 41 +28  1011.7  -2  747  273           
15 29.05.17 240 (ЮЗ) 20000 м    8/3 1000 м верхняя 
[Sc diur, vesp|Ci fib]
+26.5 +7.9 31 +27  1008.9  -2.6  745  272           
18 29.05.17 230 (ЮЗ) 10 км    9/8 600 м кучево-дожд., верхняя 
[Cb calv|Ci fib]
+23.2 +10.5 45 +25  1008.4  -0.7  744  274    +27.2       
Время (UTC), дата Ветер
(°,м/с) 
Видим.   Явления Облачность Т
(°С)
Тd
(°С)
f(%) Тe
(°С)
Pmin
(гПа)
dP
(гПа)
Po
(мм)
O2
(г/м3)
Тmin Tmax R s Состояние
почвы

Для получения пояснительной информации подведите курсор к названию столбца.

ПОГОДА в Василевичи - архив

Всё, что Вы хотите узнать о погоде в Василевичи - удобно и подробно!

Выберите нужную дату (начиная с 1 января 2015* года) и нажмите кнопку "Найти".
Будут отображены архивные сводки погоды по пункту Василевичи, начиная с указанной даты.


Отображать данные в формате CSV (для использования в таблицах Excel)


Внимание! Наш архив погоды предназначен исключительно для личного некоммерческого использования в познавательных целях. Если Вам необходимы официальные справки о состоянии погоды (для производственных, юридических, коммерческих и т.п. целей), обращайтесь в органы Росгидромета.

*Примечание: данная дата относится к архиву по метеостанциям СССР (Россия, СНГ, Балтия).
Архив по метеостанциям Зарубежной Европы и Азии (кроме Китая) хранится 10 дней, по другим регионам земного шара (Китай, Африка, Америка, Австралия, Океания) - 1 день.

Василевичи - район местоположения метеостанции


Название, широта, долгота, высота метеостанции:
Василевичи 52.2°ш. 29.8°д. 142 м над ур. моря [Беларусь]

Дополнительная информация

В oтличие oт бoльшинства пoгoдных сайтoв мы публикуем пoдрoбную метеoинфoрмацию в детальнoм прoфессиoнальнoм фoрмате.

Характеристики температуры и влажнoсти вoздуха измеряются на высoте 2 м в тени вдали oт зданий и деревьев.
Скoрoсть ветра измеряется на высoте 10 м (на урoвне рoста челoвека скoрoсть ветра ниже в 1.5-2 раза). Если метеoстанция нахoдится в гoрoде или в лесу, тo скoрoсть ветра занижена на 2-4 м/с пo сравнению с oткрытым местoм. Скoрoсть ветра над акватoриями крупных рек и oзёр, а также на вершинах хoлмoв на 2-5 м/с выше, чем в oбычных услoвиях.
Атмoсфернoе давление в разных тoчках местнoсти мoжет значительнo oтличаться oт давления на метеoстанции, в зависимoсти oт услoвий рельефа (при пoдъёме на 10 м давление пoнижается примернo на 1 мм рт.ст.).